Regional Weather Roundup
Issued by NWS

Home | Current Version | Previous Version | Graphics & Text | Print | Product List | Glossary On
Versions: 1 2 3 4 5 6 7 8 9 10 11 12 13 14 15 16 17 18 19 20 21 22 23 24 25 26 27 28 29 30 31 32 33 34 35 36 37 38 39 40 41 42 43 44 45 46 47 48 49 50
000
ASUS43 KMPX 271801
RWRMN
WEATHER ROUNDUP FOR MINNESOTA
NATIONAL WEATHER SERVICE TWIN CITIES/CHANHASSEN MN
100 PM CDT WED AUG 27 2014


NOTE: "FAIR" INDICATES FEW OR NO CLOUDS BELOW 12,000 FEET WITH NO
SIGNIFICANT WEATHER AND/OR OBSTRUCTIONS TO VISIBILITY. N/A MEANS
CURRENT SKY AND/OR WEATHER CONDITIONS ARE NOT AVAILABLE.

MNZ060>063-068>070-271900-
   Twin Cities Metro

CITY           SKY/WX    TMP DP  RH WIND       PRES   REMARKS
TWIN CITIES    PTSUNNY   73  53  49 CALM      30.20F
6HR MIN TEMP:  60; 6HR MAX TEMP:  73;

ST PAUL        FAIR      72  54  53 VRB5      30.21F
CRYSTAL        FAIR      73  54  51 E7        30.19F
BLAINE         MOSUNNY   72  55  56 NE3       30.21F
LAKEVILLE      FAIR      72  57  60 CALM      30.20F
EDEN PRAIRIE   FAIR      74  55  51 E3        30.19F
6HR MIN TEMP:  61; 6HR MAX TEMP:  74;

SOUTH ST PAUL  FAIR      72  54  54 E5        30.20F
LAKE ELMO      FAIR      70  54  56 CALM      30.22F
$$
MNZ001>005-007-008-013>017-022>024-027-028-271900-
   Northwest Minnesota

CITY           SKY/WX    TMP DP  RH WIND       PRES   REMARKS
BEMIDJI        FAIR      66  49  55 W3        30.19F
HALLOCK        FAIR      72  46  40 S5        30.16S
ROSEAU         FAIR      70  50  49 CALM      30.18S
WARROAD        FAIR      66  54  63 E5        30.18S
THIEF RVR FALL FAIR      68  50  52 W5        30.18F
CROOKSTON      FAIR      70  52  52 SW7       30.18F
FOSSTON        FAIR      70  52  52 SW7       30.20F
DETROIT LAKES  PTSUNNY   66  55  68 CALM      30.21F
MOORHEAD       FAIR      70  59  68 CALM      30.19S
PARK RAPIDS    FAIR      67  54  63 SE8       30.21F
MAHNOMEN       MOCLDY    67  54  62 SW7       30.19F
$$
MNZ006-009>011-018-025>026-271900-
   North Central Minnesota

CITY           SKY/WX    TMP DP  RH WIND       PRES   REMARKS
BAUDETTE       FAIR      68  53  58 MISG      30.18F
FLAG ISLAND    FAIR      66  57  72 S7        30.16S
INTL FALLS     FAIR      65  51  60 CALM      30.18F
6HR MIN TEMP:  42; 6HR MAX TEMP:  67;

WASKISH        FAIR      68  55  64 SW3       30.19S
BIG FORK       PTSUNNY   68  50  52 SW5       30.21S
LONGVILLE      FAIR      70  55  60 SW5       30.20F
GRAND RAPIDS   FAIR      66  48  52 NW6       30.21F
CRANE LAKE     PTSUNNY   63  45  51 CALM      30.21F
ORR            PTSUNNY   64  48  55 CALM      30.18S
COOK           PTSUNNY   64  48  55 W5        30.21S
WALKER         MOCLDY    67  53  61 S7        30.20F
$$
MNZ012-019>021-037-271900-
   Northeast Minnesota

CITY           SKY/WX    TMP DP  RH WIND       PRES   REMARKS
DULUTH         FAIR      69  47  45 W10       30.22S
6HR MIN TEMP:  50; 6HR MAX TEMP:  69;

ELY            CLOUDY    63  45  51 SW6       30.21S
HIBBING        PTSUNNY   68  48  48 VRB3      30.21F
EVELETH        FAIR      64  46  52 W7        30.23S
DULUTH HARBOR  FAIR      66  54  63 E5        30.22F
TWO HARBORS    FAIR      66  48  52 NW5       30.20S
SILVER BAY     FAIR      64  50  59 W6        30.19S
GRAND MARAIS     N/A     62  53  72 SW10      30.19R
G MARAIS ARPRT FAIR      59  43  55 W5        30.21S
$$
MNZ029>031-032-039>041-046>048-054>057-064-271900-
   West Central Minnesota

CITY           SKY/WX    TMP DP  RH WIND       PRES   REMARKS
FERGUS FALLS   PTSUNNY   70  54  56 S8        30.20S
WHEATON        PTSUNNY   66  59  77 SE8       30.20F
MORRIS         FAIR      72  57  60 S8        30.19F
ALEXANDRIA     CLOUDY    68  56  65 SE6       30.22F
ELBOW LAKE     PTSUNNY   69  59  70 S9        30.20F
WADENA         CLOUDY    64  55  72 S3        30.21S
GLENWOOD       FAIR      70  57  64 S5        30.22F
APPLETON       FAIR      73  57  56 S6        30.18F
BENSON         FAIR      72  59  64 S9        30.19F
ORTONVILLE     FAIR      72  57  60 S8        30.18F
MADISON        FAIR      73  61  64 S10       30.18F
WILLMAR        FAIR      72  57  60 S3        30.21F
$$
MNZ033>034-036-042>043-049>051-058-059-271900-
   Central Minnesota

CITY           SKY/WX    TMP DP  RH WIND       PRES   REMARKS
ST CLOUD       CLOUDY    72  54  53 S5        30.21F
6HR MIN TEMP:  57; 6HR MAX TEMP:  72;

SAUK CENTRE    CLOUDY    70  57  63 S7        30.22F
PAYNESVILLE    FAIR      68  55  62 E6        30.21F
AITKIN         PTSUNNY   70  57  64 S6        30.21F
PINE RIVER     CLOUDY    66  55  68 S6        30.24F
BRAINERD       CLOUDY    66  55  67 VRB5      30.22F
STAPLES        PTSUNNY   66  55  68 S5        30.22S
LONG PRAIRIE   PTSUNNY   66  55  68 CALM      30.22F
LITTLE FALLS   PTSUNNY   66  54  63 CALM      30.22F
LITCHFIELD     FAIR      73  57  56 CALM      30.21F
BUFFALO        FAIR      71  54  54 E3        30.21F
MAPLE LAKE     FAIR      72  58  61 E5        30.22F
$$
MNZ037-044-045-052-053-271900-
   East Central Minnesota

CITY           SKY/WX    TMP DP  RH WIND       PRES   REMARKS
PRINCETON      PTSUNNY   70  55  60 SE3       30.22F
MORA           CLOUDY    64  50  59 CALM      30.24F
CAMBRIDGE      FAIR      72  54  53 CALM      30.21F
RUSH CITY      FAIR      67  53  60 CALM      30.23F
MOOSE LAKE     CLOUDY    68  50  52 CALM      30.21F
HINCKLEY       MOCLDY    68  52  56 SE3       30.23F
CLOQUET        PTSUNNY   64  46  52 SW3       30.23S
MCGREGOR       PTSUNNY   68  54  60 S5        30.23F
$$
MNZ071>073-080-081-089-090-097-098-271900-
   Southwest Minnesota

CITY           SKY/WX    TMP DP  RH WIND       PRES   REMARKS
MONTEVIDEO     FAIR      73  61  64 S5        30.20F
GRANITE FALLS  FAIR      71  59  64 SE7       30.20F
CANBY          FAIR      71  60  69 SE9       30.19F
MARSHALL       FAIR      72  55  56 S8        30.18F
REDWOOD FALLS  FAIR      74  57  55 S8        30.19F
OLIVIA         FAIR      72  59  64 SE7       30.19F
PIPESTONE      FAIR      72  61  68 S7        30.18F
WINDOM         FAIR      70  57  64 E6        30.20F
WORTHINGTON    FAIR      66  59  77 SE8       30.21F
JACKSON        FAIR      70  55  60 SE7       30.21F
TRACY          FAIR      72  60  64 SE7       30.19F
SLAYTON        FAIR      70  59  67 SE5       30.20F
$$
MNZ065>067-074>077-082>085-091>093-271900-
   South Central Minnesota

CITY           SKY/WX    TMP DP  RH WIND       PRES   REMARKS
MANKATO        FAIR      70  55  60 SE6       30.20F
NEW ULM        FAIR      72  57  60 S6        30.19F
ST JAMES       FAIR      73  59  60 SE5       30.21F
FAIRMONT       FAIR      66  55  68 SE6       30.21S
GLENCOE        FAIR      73  56  56 CALM      30.20F
FARIBAULT      FAIR      73  54  49 E5        30.21F
OWATONNA       FAIR      72  55  56 CALM      30.21F
WASECA         FAIR      68  54  60 CALM      30.23F
ALBERT LEA     FAIR      70  55  60 E7        30.21F
$$
MNZ078>079-086>088-094>096-271900-
   Southeast Minnesota

CITY           SKY/WX    TMP DP  RH WIND       PRES   REMARKS
ROCHESTER      FAIR      71  57  61 E5        30.22F
6HR MIN TEMP:  61; 6HR MAX TEMP:  71;

RED WING       FAIR      73  55  53 SW6       30.19F
STANTON        FAIR      72  56  55 N3        30.20F
DODGE CENTER   FAIR      72  57  60 E3        30.22S
WINONA         FAIR      72  55  56 CALM      30.19F
AUSTIN         FAIR      70  57  64 SE3       30.20F
PRESTON        FAIR      69  61  76 CALM      30.22F
$$
ABBREVIATIONS USED IN REMARKS
   TC - TEMPERATURES IN CELSIUS
  WCI - WIND CHILL INDEX
   HX - HEAT INDEX
  VSB - VISIBILITY
$$



USA.gov is the U.S. government's official web portal to all federal, state and local government web resources and services.